Theta_e
314 315 317 318 319 321 323 325 326 327 329 329 329 329 328 327 327 328 329 329 328 327 326 327 325 325 326 326 326 325 325 325 323 323 324 324 324 323 321 320 319 322 324 325 325 322 318 319 320 317 315 315 313 309 309 308 305 303 302 301 299 296 294 294 294 293 291 291 291 291 291 291 291 291
313 313 314 316 317 319 321 323 325 326 327 328 329 329 328 327 326 326 328 328 326 326 326 327 326 326 327 327 326 325 325 325 324 323 323 323 323 323 322 320 319 320 323 324 325 323 318 317 319 316 313 314 312 309 308 307 305 303 301 300 298 296 294 294 294 293 291 291 291 291 291 291 291 291
311 312 313 314 316 318 319 321 324 326 326 327 328 327 327 328 328 327 327 328 327 326 327 327 327 327 327 327 326 325 325 324 324 324 323 323 323 323 321 320 318 320 323 324 323 323 320 317 317 316 312 312 312 309 308 307 304 303 301 299 297 295 294 294 293 292 291 291 291 291 291 291 290 290
309 310 312 313 315 316 317 319 322 324 326 327 327 327 326 327 328 327 327 327 327 327 326 327 327 327 327 327 326 326 325 324 324 324 323 323 323 322 321 319 320 322 325 325 324 323 321 318 317 316 313 312 311 310 308 306 304 302 300 297 295 295 294 294 293 292 291 291 291 291 291 290 290 290
308 308 309 311 313 314 316 317 319 321 324 327 327 327 327 327 328 328 327 327 327 327 327 326 327 328 327 327 327 327 326 325 324 324 324 324 324 323 320 319 322 325 327 327 326 323 322 319 317 315 314 312 311 310 308 306 304 302 298 296 295 295 294 294 293 292 291 291 291 291 290 290 290 290
307 307 308 309 310 312 313 315 316 318 321 324 326 327 327 327 327 328 328 327 327 327 327 326 327 327 328 328 328 328 326 326 325 325 325 325 325 324 322 322 324 325 327 327 326 324 323 321 318 315 313 313 312 311 308 306 304 301 297 295 295 295 294 293 293 291 291 291 291 290 290 290 290 290
306 306 307 307 308 309 311 312 314 315 317 320 323 326 327 327 327 328 328 328 328 327 327 326 326 327 328 327 327 327 327 326 326 326 326 326 326 325 324 324 325 326 327 326 325 324 324 323 320 316 313 313 312 311 308 306 304 300 296 295 295 294 294 293 292 291 290 290 290 290 290 290 290 289
305 306 306 307 307 308 309 310 312 313 314 316 319 322 325 326 327 327 328 328 327 327 327 327 327 327 327 327 327 327 327 326 326 326 326 326 326 326 325 325 325 326 326 326 325 324 323 322 319 315 313 313 312 311 308 305 302 298 295 295 295 294 293 293 292 291 290 290 290 290 290 290 290 289
305 305 306 306 306 307 307 308 310 312 313 314 316 318 321 323 325 326 327 327 327 327 327 327 327 327 326 326 327 327 327 326 324 324 325 326 326 326 325 325 325 325 325 324 324 323 322 320 316 314 313 313 313 311 309 306 301 296 295 295 295 294 293 293 292 291 290 290 290 290 290 290 290 289
305 305 305 305 305 306 306 307 308 310 311 313 314 315 318 320 322 324 325 326 327 327 327 326 326 327 326 325 325 326 326 325 323 321 320 321 323 325 324 323 323 324 324 323 322 321 320 318 315 313 312 313 312 310 309 306 300 296 296 295 295 294 293 293 292 291 290 290 290 290 290 290 289 289
304 304 304 304 304 305 306 306 307 308 309 310 312 314 315 317 320 322 323 324 326 326 326 325 326 326 326 325 324 324 325 323 321 319 316 315 316 319 320 321 320 320 321 320 319 319 318 317 315 313 312 312 311 310 309 305 298 295 296 295 294 294 293 292 292 291 290 289 289 290 289 289 289 289
304 304 304 304 304 304 304 305 305 306 307 308 308 310 311 313 315 318 321 322 324 325 325 325 326 325 324 324 322 320 319 317 316 316 316 315 314 313 315 318 319 318 317 317 316 317 317 315 314 312 311 311 310 309 308 303 297 295 296 295 294 294 293 292 292 290 289 289 289 289 289 289 289 289
304 304 304 304 304 304 304 304 304 304 305 305 306 306 307 308 309 311 315 319 322 323 324 324 325 324 323 321 319 316 315 316 315 315 316 315 313 312 312 313 315 316 315 315 314 314 315 314 313 312 311 310 309 308 305 300 295 295 295 294 294 293 293 292 291 290 289 289 289 289 289 289 289 289
303 303 303 303 303 303 303 303 304 304 304 304 305 305 305 306 306 307 309 313 317 321 323 324 323 323 322 321 317 316 317 318 316 314 312 311 309 308 307 307 309 312 313 312 312 312 313 313 312 310 310 309 308 306 302 297 295 295 294 294 294 293 292 292 291 290 289 289 289 289 289 289 289 289
301 302 302 302 302 302 302 302 302 303 303 304 304 305 305 306 306 307 307 309 312 316 319 322 323 322 322 320 317 317 317 316 314 313 312 310 307 305 305 305 306 308 311 310 308 309 310 309 308 308 308 307 306 304 299 296 295 294 294 296 296 293 292 292 291 290 289 288 289 289 289 289 289 289
300 300 300 301 301 301 301 301 301 301 301 302 303 304 305 306 306 307 308 308 309 312 314 317 320 321 323 321 318 316 315 313 313 312 311 309 306 306 306 306 307 310 310 307 305 305 304 303 303 304 305 304 302 300 297 295 295 295 296 296 295 293 293 293 291 289 288 288 289 289 289 289 289 289
298 298 299 299 300 300 301 301 301 301 300 300 301 302 303 305 306 307 308 308 309 310 312 314 316 317 321 323 321 319 316 313 311 309 308 307 306 306 307 308 309 309 307 305 304 302 301 301 300 300 300 300 298 296 296 295 295 296 297 296 294 295 294 292 290 289 289 288 288 289 289 289 289 288
298 298 298 298 299 299 300 300 300 300 300 300 300 300 302 303 305 307 309 309 310 310 311 312 313 314 317 320 321 320 318 314 311 310 308 308 307 306 307 308 307 304 304 306 304 301 299 299 298 297 297 297 295 295 295 294 295 297 297 295 295 295 293 291 291 291 290 289 288 289 289 289 288 288
297 297 297 298 298 298 298 299 299 300 300 300 300 300 300 301 302 303 306 308 310 312 312 313 313 313 314 316 319 321 319 315 313 312 310 309 307 305 305 305 304 303 303 304 303 300 299 297 296 296 296 295 294 294 294 294 295 296 296 295 295 294 292 291 292 292 291 289 288 289 289 288 288 288
296 296 296 297 297 297 297 298 298 298 299 299 299 300 300 300 300 301 302 305 307 309 312 314 315 315 315 314 316 319 319 317 314 310 309 307 306 305 304 303 302 302 301 301 301 301 299 296 295 295 294 293 293 293 293 294 295 295 295 295 294 294 293 292 293 293 291 289 288 289 288 288 288 288
295 295 295 296 296 296 297 297 298 298 298 298 299 299 299 299 299 300 300 302 304 306 309 311 313 316 316 316 315 316 319 319 315 310 307 306 305 305 304 303 301 300 299 299 299 300 298 296 295 294 294 293 293 293 293 294 295 295 294 295 295 295 294 293 293 293 290 288 288 289 288 288 289 289
294 294 294 295 295 296 296 297 297 298 298 298 298 299 299 299 299 299 300 301 303 306 308 310 312 315 317 317 316 315 318 319 316 311 309 308 305 304 305 304 301 299 298 298 297 298 298 297 295 294 294 294 294 293 294 295 295 294 294 294 296 296 295 294 293 292 290 288 289 288 288 288 290 291
293 294 294 294 295 295 296 296 296 297 297 298 298 299 299 299 299 299 299 300 302 306 309 310 312 315 317 317 316 316 318 320 318 315 312 310 307 306 306 305 302 300 299 298 297 298 298 297 295 295 295 295 294 294 294 294 294 294 294 295 296 296 294 294 293 291 289 288 289 288 288 290 291 292
293 293 293 294 294 295 295 295 296 296 297 297 297 298 299 299 299 299 299 300 301 304 306 307 308 310 314 318 317 317 318 320 319 318 314 311 309 308 307 305 303 303 302 300 298 298 298 297 296 296 296 297 296 294 294 295 295 294 295 296 296 295 294 293 291 290 289 289 290 290 290 291 292 292
292 293 293 293 294 294 295 295 296 296 296 296 297 297 298 298 299 299 299 299 300 301 302 303 304 305 310 315 317 317 319 320 319 317 315 312 311 310 309 306 304 304 304 302 301 300 298 297 297 296 297 297 296 293 293 294 295 295 296 297 296 295 293 292 290 290 290 291 291 291 292 292 292 292
292 292 292 293 293 293 294 295 296 296 296 296 297 297 297 298 298 298 298 298 299 299 299 300 302 303 308 314 317 317 319 319 317 316 314 312 312 311 311 310 307 306 306 304 302 300 299 298 297 297 297 296 295 294 293 293 294 296 296 296 295 294 292 290 290 291 292 292 292 292 293 293 292 292
291 292 292 292 292 292 293 294 295 296 296 296 297 297 297 297 298 298 298 298 298 299 299 299 300 302 306 313 316 317 318 318 316 313 312 311 311 310 310 310 310 309 307 305 302 300 299 299 298 298 297 296 295 294 293 293 294 295 295 295 295 293 291 291 292 293 293 293 293 293 293 293 293 293
291 291 291 291 291 291 292 292 293 295 295 296 296 297 297 297 298 298 298 298 298 298 298 299 300 302 305 311 316 317 317 316 314 312 311 310 310 310 309 309 308 307 307 305 303 301 300 300 299 298 298 297 295 294 294 294 294 295 295 295 294 293 292 293 293 293 293 293 293 293 293 293 292 292
290 290 290 291 291 291 291 291 292 293 294 295 296 296 296 297 297 297 298 298 298 298 299 300 301 303 306 310 315 317 315 312 311 310 310 310 309 309 308 308 306 306 306 305 303 301 300 301 301 298 297 298 297 296 295 295 295 295 296 295 294 293 293 294 294 293 293 293 293 293 293 292 292 292
289 290 290 290 291 291 291 291 291 292 293 295 295 296 296 296 297 297 298 298 298 299 300 301 303 304 307 310 313 314 312 310 309 309 309 309 308 308 307 306 304 304 304 304 303 301 300 301 301 299 297 298 298 297 297 296 295 295 295 295 294 294 294 294 294 293 293 293 292 292 292 292 292 292
290 290 290 291 291 291 292 291 291 292 293 294 295 295 296 296 296 297 298 298 299 300 301 303 304 306 307 309 310 310 309 308 308 308 308 308 306 306 306 304 302 301 301 301 301 300 301 301 300 298 297 298 298 298 297 296 295 294 294 295 295 294 294 294 293 293 293 293 293 292 292 292 292 292
290 290 291 291 292 292 292 292 292 292 293 294 294 295 296 297 298 298 298 299 300 301 303 304 306 306 306 307 307 307 307 306 306 307 307 307 305 305 305 302 299 298 299 298 299 299 300 300 299 298 298 298 298 297 297 296 295 295 295 295 294 294 294 293 293 293 293 293 292 292 292 292 291 291
289 290 290 291 292 293 293 293 293 293 293 294 294 295 297 298 299 300 300 300 300 302 304 305 306 305 305 304 304 304 303 304 304 305 305 304 303 304 303 300 298 297 297 297 298 298 298 299 298 298 298 298 298 297 296 295 294 295 295 294 294 293 293 293 293 292 292 292 292 292 292 291 290 290
289 290 291 292 293 293 294 294 294 294 294 295 295 296 297 298 299 300 301 301 302 303 305 306 305 305 303 302 301 301 301 301 301 302 303 303 302 302 300 298 296 296 296 296 297 297 297 297 297 296 295 296 295 296 295 294 293 293 293 293 293 292 292 292 292 292 291 291 292 291 291 290 290 290
290 291 293 294 294 294 294 295 295 295 295 295 296 297 297 298 299 299 300 302 303 304 305 305 304 303 302 300 299 299 299 299 299 300 301 301 300 300 299 297 295 295 296 296 296 296 296 295 294 294 294 294 293 293 293 293 293 293 292 292 292 292 291 291 291 291 291 291 291 291 290 290 290 289
291 293 295 295 295 295 295 295 295 296 296 296 297 297 297 298 299 299 300 302 304 304 304 303 302 301 300 299 298 298 298 298 297 297 298 298 298 298 297 295 294 294 295 294 294 295 295 294 293 293 292 292 292 291 291 292 293 293 292 292 291 291 291 291 291 291 291 291 291 290 290 289 289 289
292 294 295 296 296 296 296 296 297 297 297 297 298 298 298 299 300 301 302 303 303 304 304 302 301 299 298 297 297 296 296 296 296 295 295 296 296 295 294 294 293 294 294 294 294 294 294 293 293 293 292 292 292 290 289 290 291 292 292 292 291 291 290 290 290 290 290 290 290 290 289 289 288 288
291 292 294 295 297 297 297 297 297 298 298 298 298 298 299 300 301 301 302 302 302 302 301 300 299 298 297 296 295 295 295 295 294 294 294 294 294 294 293 293 293 293 293 293 293 293 293 293 293 293 292 292 291 289 288 288 289 290 291 291 291 290 290 290 290 290 290 289 289 289 288 288 288 287
290 291 292 293 295 296 297 297 297 297 297 297 298 298 298 299 300 300 300 301 300 300 299 298 297 296 296 295 295 294 294 294 293 293 293 293 293 293 292 292 292 292 292 292 292 292 293 293 293 293 292 291 290 289 288 287 287 287 288 288 289 289 289 290 290 289 289 289 288 288 288 287 287 287
289 290 291 292 293 294 295 296 296 297 297 297 297 297 297 297 298 298 298 299 299 299 298 297 296 295 295 294 294 294 293 293 292 292 292 292 292 292 292 292 292 292 291 291 291 291 291 292 292 292 292 292 290 289 288 287 287 287 286 286 286 287 288 289 289 289 288 288 288 288 287 287 287 287
288 289 289 290 291 292 294 295 296 296 296 296 296 296 295 296 296 296 296 297 297 297 296 295 295 294 294 293 293 293 292 292 292 291 291 291 291 291 291 291 291 291 290 290 290 290 291 291 291 291 291 290 289 288 288 288 287 287 286 286 286 287 287 288 288 288 288 288 288 288 287 287 287 287
288 288 288 289 290 291 292 293 294 295 295 295 295 295 295 295 295 295 295 295 295 295 294 294 293 293 293 292 293 292 292 291 291 291 291 290 290 290 290 290 290 291 290 290 290 291 291 291 291 291 290 289 289 289 288 288 287 287 287 287 288 288 288 288 288 288 288 288 288 288 288 287 287 287
288 288 288 288 289 290 290 291 292 293 293 294 294 294 294 294 293 293 293 293 293 293 293 293 292 292 292 292 292 292 291 291 290 290 290 290 290 290 290 290 290 290 290 289 289 290 291 291 291 291 290 289 290 289 288 288 288 288 288 288 288 288 289 288 289 289 289 288 288 288 287 287 287 287
287 287 288 288 288 289 289 290 290 291 291 292 292 292 293 292 292 292 292 292 292 292 292 292 292 291 291 291 291 291 290 290 290 290 290 290 290 290 290 290 289 289 289 289 289 289 290 290 290 290 290 290 290 289 288 288 288 288 288 289 289 289 289 289 289 289 289 288 288 287 287 287 287 287
287 287 287 287 288 288 289 289 289 290 290 291 291 291 291 291 291 291 291 291 291 291 291 291 291 291 291 291 290 290 290 290 290 290 290 290 290 290 290 289 289 289 289 289 289 289 289 289 290 290 290 290 289 289 288 288 288 288 288 288 288 288 289 289 289 289 289 288 288 287 287 287 287 287
Wind_Speed
22 23 23 23 24 23 23 24 25 25 26 27 27 27 25 18 9 6 7 5 8 15 17 19 24 25 23 24 28 33 36 34 31 30 33 35 34 32 32 33 34 35 37 37 35 33 32 31 29 27 27 27 26 25 23 21 19 18 17 17 15 14 12 11 11 10 10 9 8 7 6 5 4 5
23 24 24 24 25 24 24 25 25 25 26 26 27 26 27 26 18 10 8 7 10 16 19 19 21 23 24 24 25 30 36 36 33 31 34 36 35 33 34 36 36 35 37 37 36 34 33 33 31 29 29 29 27 25 24 22 20 19 18 17 16 15 13 12 11 11 10 9 8 7 6 5 5 5
22 22 24 25 25 25 25 25 25 26 26 26 27 27 27 28 26 21 12 7 13 20 20 21 22 20 21 23 23 26 33 37 36 34 36 37 34 33 35 38 38 36 37 39 37 35 34 34 34 32 31 30 28 26 25 23 22 21 19 18 17 16 14 12 12 11 10 10 8 7 6 5 5 5
22 22 23 24 24 24 25 25 24 25 27 27 27 28 29 28 26 26 19 9 13 23 24 22 22 20 20 22 22 24 31 36 37 37 38 37 34 34 37 40 39 37 38 40 38 35 35 36 36 35 33 32 29 28 27 25 24 22 20 19 18 16 14 13 12 12 11 10 9 7 6 5 5 6
22 23 23 24 24 24 24 24 23 23 25 27 29 28 29 28 26 25 23 15 13 22 25 24 22 20 18 19 20 24 29 33 36 37 37 37 35 34 38 40 40 40 40 41 39 35 35 37 37 36 35 34 31 29 28 27 25 23 20 19 18 16 15 14 13 12 11 10 9 8 7 6 6 6
22 22 24 25 26 25 26 26 25 23 23 24 27 29 29 29 28 27 25 20 16 19 23 24 24 20 18 19 20 22 27 32 35 36 36 35 34 35 38 41 41 42 42 42 40 35 33 36 38 38 36 35 33 30 29 28 26 23 21 20 18 16 15 14 13 13 12 11 9 8 8 7 7 7
23 23 25 26 26 26 26 28 28 27 25 24 24 27 29 30 30 29 27 24 20 20 22 23 23 22 22 23 22 23 27 30 31 32 33 34 34 36 39 41 42 43 44 43 41 38 35 36 39 39 37 36 35 32 30 29 27 24 21 20 19 17 16 15 14 13 12 11 10 9 8 8 7 7
23 24 24 24 24 25 26 27 28 29 29 27 25 25 26 29 31 31 30 28 25 22 22 22 23 25 25 25 26 26 27 30 30 29 31 33 35 38 39 40 41 43 43 43 42 40 38 38 40 39 37 37 35 33 31 29 26 24 22 21 19 18 16 15 14 13 12 11 10 10 9 9 8 8
24 24 24 25 25 25 26 27 27 28 29 29 28 27 25 25 28 30 31 31 29 27 24 22 21 24 25 25 27 30 31 30 27 25 27 31 33 36 38 39 41 42 43 43 42 40 39 39 39 37 36 37 36 34 32 30 26 24 23 22 20 18 17 16 15 14 13 12 11 10 10 9 9 8
25 25 25 26 26 27 27 27 27 27 28 28 28 28 28 25 24 26 28 29 29 29 28 25 21 22 26 25 27 31 35 33 30 26 24 26 30 34 36 38 39 42 44 44 44 42 40 40 38 36 36 37 36 35 33 30 27 26 25 23 20 19 17 16 15 14 13 12 11 11 10 10 9 9
27 27 27 27 27 27 27 27 27 28 28 28 27 27 27 26 24 24 25 26 27 28 27 26 24 24 27 27 27 32 35 33 31 30 26 24 27 31 34 36 38 40 43 44 43 42 40 38 36 35 36 36 36 36 34 31 28 27 25 23 21 19 17 16 15 14 13 12 12 11 11 11 10 9
26 26 26 27 27 28 28 28 28 28 29 30 31 31 28 27 27 25 23 23 25 25 24 25 25 25 24 24 24 28 31 27 25 30 32 30 30 30 31 34 36 39 42 42 42 41 40 38 37 36 36 37 37 36 34 31 30 28 26 23 21 19 17 16 15 14 14 13 12 12 12 11 10 10
26 26 26 26 26 26 27 28 29 31 32 32 35 37 35 32 30 29 26 22 21 21 20 21 23 21 18 20 22 25 30 31 29 32 33 30 30 31 29 30 34 38 41 41 40 40 41 40 39 39 39 39 38 37 34 33 31 29 27 23 21 19 18 17 16 14 14 13 12 12 12 11 10 10
28 28 30 31 31 31 31 30 29 30 32 33 35 37 38 36 34 32 30 27 23 20 17 18 20 18 16 21 26 30 35 36 33 33 32 27 28 28 23 22 30 36 39 40 40 41 42 42 41 42 43 42 40 39 37 35 33 30 27 24 21 20 18 17 16 15 14 13 12 12 11 11 10 10
28 28 30 31 33 35 35 34 32 31 31 32 32 34 36 37 37 35 33 31 29 24 20 19 19 17 17 22 29 32 35 35 33 35 36 31 29 28 22 17 23 35 41 39 38 40 41 42 42 42 44 43 42 41 39 36 34 30 27 25 22 20 19 17 16 15 14 13 12 12 11 10 10 10
29 29 30 30 31 32 33 33 33 33 33 33 33 34 35 36 37 37 36 35 33 31 26 23 23 20 18 21 29 32 32 34 35 36 36 34 32 32 29 24 26 38 47 42 35 36 38 39 39 41 43 44 43 42 40 37 35 31 28 25 22 20 19 17 16 14 13 13 12 11 11 10 10 9
30 30 30 30 31 32 32 32 32 33 33 34 34 35 35 35 36 37 38 39 38 37 33 30 30 29 23 21 27 34 37 36 35 33 32 34 36 36 35 35 33 37 45 43 34 30 34 38 39 39 41 42 42 40 39 38 36 32 28 25 22 21 19 17 16 13 12 11 11 11 10 10 10 9
32 32 32 32 32 32 32 32 32 31 32 32 32 33 33 34 34 33 34 35 37 40 39 37 37 38 34 29 26 31 37 39 38 38 39 39 40 37 32 30 27 28 39 45 35 26 30 37 37 38 40 40 40 41 40 39 36 31 28 25 22 20 19 18 16 13 11 10 10 10 10 10 9 9
32 32 32 33 34 33 33 33 32 32 32 31 32 33 34 36 38 36 34 32 32 35 39 41 42 42 42 40 34 31 33 39 41 41 43 43 39 32 24 19 19 22 34 42 32 20 26 34 36 37 37 36 37 39 39 38 35 30 27 24 22 20 19 19 17 13 11 10 10 10 10 9 9 7
32 32 33 33 34 34 35 34 34 34 34 34 35 35 35 37 39 42 41 36 33 34 35 38 41 43 43 43 41 37 33 37 39 33 29 30 30 25 19 16 18 23 30 39 35 22 21 31 34 33 31 31 33 35 36 36 33 30 27 24 21 20 20 19 18 14 11 11 11 10 9 8 7 5
33 34 34 35 35 36 35 34 34 33 33 36 36 35 35 35 36 41 43 40 38 37 36 36 38 40 42 42 42 42 38 37 40 32 22 23 27 24 17 14 18 24 29 37 39 26 19 27 32 28 25 27 29 29 31 33 31 28 26 23 21 20 20 19 17 14 13 12 11 10 8 7 5 4
34 35 35 35 36 37 37 35 34 33 33 35 35 33 33 33 34 37 38 36 36 35 35 36 36 37 40 42 41 42 41 40 42 40 33 31 31 27 20 17 17 19 25 36 39 28 19 24 29 24 19 20 25 28 29 31 29 26 25 24 21 19 19 18 17 15 13 12 10 9 7 6 6 5
35 35 35 35 36 38 38 37 37 36 35 36 35 33 31 32 34 35 32 31 32 30 29 30 30 31 36 41 42 41 42 43 44 46 44 42 38 32 28 24 17 10 17 35 41 31 22 24 29 27 18 11 16 25 27 27 27 26 26 25 22 19 19 18 16 15 13 11 10 9 8 8 8 7
34 33 34 37 38 38 39 39 39 39 39 39 38 35 33 34 33 30 29 30 31 32 32 32 29 29 33 38 41 41 43 45 47 48 48 47 45 40 34 32 27 18 20 34 44 35 24 25 31 31 23 11 8 17 24 26 27 26 25 25 22 19 19 18 16 15 13 12 11 10 10 10 10 9
35 35 36 38 38 37 38 39 39 40 41 41 42 40 39 39 35 31 32 33 33 35 38 37 34 32 32 33 37 41 43 46 48 49 50 50 50 48 41 37 35 28 22 31 45 41 28 26 31 30 24 16 11 16 21 24 27 28 24 22 20 19 19 18 16 15 13 12 12 11 11 11 11 10
35 36 37 38 37 36 36 37 37 39 39 40 42 44 44 43 41 38 38 37 35 37 37 35 34 33 31 30 33 38 41 45 48 49 50 51 51 51 48 44 42 38 30 30 42 43 31 29 34 31 24 17 14 18 20 19 23 28 25 21 19 18 17 17 15 14 13 12 11 10 10 11 11 11
37 39 40 40 40 39 38 37 37 38 39 39 41 43 43 43 43 42 41 38 37 37 35 33 33 32 31 29 31 35 38 43 47 47 47 48 47 46 45 43 42 41 34 29 38 43 34 29 33 32 28 23 18 17 18 17 20 26 26 21 19 17 16 16 15 13 12 10 9 8 8 9 9 9
40 41 42 43 43 42 41 40 39 39 40 41 41 42 42 42 42 41 40 39 36 33 31 31 31 31 31 29 30 33 37 41 44 44 42 42 42 40 39 37 35 33 28 25 35 43 37 32 33 32 30 29 25 19 17 17 21 27 26 20 18 16 16 17 16 14 11 9 9 8 7 6 5 4
42 44 45 46 47 46 45 43 41 40 40 41 42 42 41 41 40 39 39 37 32 30 29 29 29 31 32 31 31 33 33 35 38 40 38 35 35 34 33 29 26 24 21 22 32 40 35 30 32 31 28 28 27 25 22 21 22 28 28 23 19 18 18 18 17 14 12 10 9 8 5 4 3 4
44 45 45 45 45 45 45 43 41 40 39 38 39 40 40 40 40 38 36 33 29 28 28 28 28 31 31 29 28 29 30 33 36 39 38 34 31 30 30 25 20 19 20 24 33 39 33 27 29 30 27 24 23 24 25 23 22 26 27 24 20 18 19 20 18 16 14 13 10 7 4 2 1 3
41 41 41 42 42 41 41 39 39 38 38 36 35 35 37 38 39 38 35 32 30 28 28 28 28 28 26 24 25 27 30 33 35 37 39 36 32 31 31 27 25 24 24 25 28 32 31 28 27 28 28 25 22 23 24 23 23 25 25 23 21 18 19 21 19 16 16 13 9 6 5 3 1 2
40 40 40 40 38 35 34 33 33 34 35 35 34 33 32 33 35 37 36 35 33 31 29 28 26 25 23 24 26 28 31 33 34 35 37 36 35 34 33 30 28 28 26 24 23 25 26 27 27 26 26 24 22 22 23 23 24 27 26 24 23 20 20 22 20 17 14 10 8 8 7 5 5 6
39 38 36 34 31 27 26 26 27 28 30 31 32 32 30 29 29 29 31 33 33 31 30 28 27 26 25 24 25 28 30 30 32 34 35 35 34 33 32 30 30 31 29 26 26 27 27 27 26 23 21 19 19 22 24 23 24 27 27 25 23 22 21 21 19 14 11 9 10 10 9 9 10 9
34 32 30 28 25 23 22 22 22 23 24 25 26 28 29 29 27 27 27 29 30 31 30 30 30 29 28 26 26 28 29 29 29 30 33 35 35 33 31 29 27 29 31 31 31 31 31 30 28 23 21 21 21 23 27 27 26 27 27 26 26 24 21 18 15 12 9 10 12 11 11 11 11 9
29 27 24 22 20 19 20 19 19 20 21 21 23 24 25 27 29 29 29 29 30 31 32 32 32 31 31 29 28 28 30 30 29 29 30 32 32 31 32 31 29 29 32 33 33 34 35 35 33 29 26 24 22 18 20 25 28 28 26 26 25 24 20 15 13 12 11 12 12 11 11 11 10 8
23 20 18 18 17 16 16 17 17 19 20 21 22 22 22 25 29 31 32 32 33 34 34 33 32 32 32 31 30 30 31 31 29 28 29 29 29 28 29 29 29 29 31 32 34 37 38 36 33 29 23 18 14 10 9 16 23 26 27 26 22 20 18 16 14 14 13 12 11 10 11 11 9 8
18 17 14 12 13 13 15 16 17 19 21 22 23 23 23 25 27 29 31 33 35 37 36 35 34 32 31 31 30 30 30 31 30 28 27 28 28 28 27 27 28 28 30 31 34 38 37 34 31 27 19 11 7 5 7 13 18 21 23 23 21 18 17 18 17 16 14 12 11 11 11 11 10 9
19 18 14 9 6 7 10 12 14 16 17 18 19 20 20 20 21 24 29 32 34 34 34 33 33 32 32 32 31 30 29 28 28 27 27 27 27 27 26 26 26 27 30 31 32 34 34 31 30 28 21 12 7 6 8 12 15 14 14 15 17 17 17 18 18 17 14 13 13 12 10 10 10 8
20 18 15 12 7 2 3 6 8 9 9 10 11 13 15 17 20 25 29 32 33 33 33 32 32 32 32 32 32 32 31 29 28 27 26 26 26 26 26 26 25 26 28 28 27 28 30 30 29 29 26 19 14 16 18 18 16 14 11 8 10 14 17 18 18 16 15 14 14 11 11 11 10 9
22 19 16 13 9 5 1 3 5 7 7 7 8 10 13 17 22 25 28 30 32 32 31 31 32 32 32 31 32 32 30 29 29 28 27 28 28 28 28 26 25 25 24 21 21 22 25 27 27 27 25 24 23 26 29 25 20 17 15 12 9 11 13 14 15 16 16 15 13 13 13 13 11 11
21 19 17 14 10 6 4 4 6 7 8 9 10 12 14 16 19 21 24 27 31 32 31 31 31 32 32 32 33 32 30 28 28 29 29 29 28 29 29 27 24 23 21 19 18 19 20 22 22 21 22 27 30 29 24 19 16 17 18 18 16 15 13 12 14 16 17 14 13 13 13 11 10 12
20 19 18 16 12 9 7 7 8 9 10 12 13 15 16 15 17 19 20 23 25 28 30 30 30 30 30 30 31 32 31 29 29 30 30 30 29 29 28 25 24 23 22 21 21 22 21 20 21 22 25 30 32 26 18 15 17 19 19 19 18 18 17 15 15 15 15 15 14 13 10 8 7 9
20 19 19 18 15 13 11 10 10 12 13 15 16 18 19 19 18 19 20 22 23 24 27 28 29 29 28 28 29 30 30 30 31 31 31 31 30 29 27 26 26 26 26 26 26 26 26 26 28 30 30 29 28 25 21 21 22 21 19 17 17 16 15 13 11 12 13 13 14 15 14 12 9 9
20 19 19 19 18 17 15 14 13 14 16 18 19 20 21 22 21 20 20 22 23 24 26 27 29 29 29 29 30 29 29 31 32 33 33 32 31 30 30 30 30 30 30 30 27 26 26 28 29 29 27 26 27 29 27 25 23 21 18 16 15 14 12 10 9 10 12 13 14 15 15 15 14 12
21 20 20 21 20 19 18 17 17 17 18 19 20 22 23 24 24 23 22 22 23 25 26 27 29 29 30 32 32 31 32 33 34 35 34 32 32 32 32 32 33 32 31 29 27 25 25 25 25 26 27 27 29 30 29 26 23 20 18 17 15 13 12 11 11 13 15 16 15 14 14 14 14 14
Wind_Direction
291 289 287 289 292 291 285 276 270 265 258 251 247 243 235 229 230 250 256 242 246 255 252 252 259 260 253 247 238 232 232 230 225 226 228 227 226 224 219 215 216 217 212 209 213 213 208 209 212 211 208 209 209 208 208 209 211 214 218 221 227 234 237 238 240 247 252 256 261 262 269 280 290 300
294 292 288 287 287 289 290 285 276 269 263 254 249 247 241 233 225 229 250 246 240 251 253 248 254 258 250 245 242 236 232 229 225 224 226 226 226 225 221 217 216 216 212 210 213 214 210 210 214 215 212 212 213 211 210 212 215 219 221 225 231 235 236 237 239 245 253 257 258 258 264 277 286 295
294 294 292 289 286 286 290 291 283 271 264 258 254 251 246 240 233 229 235 251 245 245 249 248 249 252 247 244 248 244 235 230 227 224 223 224 224 225 221 217 215 214 212 211 212 213 212 212 214 216 215 214 214 214 213 215 218 221 224 227 233 235 235 236 239 246 252 255 257 260 266 276 285 293
290 291 292 290 288 287 288 290 289 278 266 260 257 253 248 244 239 234 230 240 252 246 246 249 248 245 245 248 251 246 234 226 223 220 220 221 221 221 218 213 213 213 211 210 210 210 212 213 214 215 216 216 215 215 215 216 219 222 226 229 232 233 234 235 239 246 252 253 258 265 272 279 284 289
290 291 291 291 290 289 288 288 290 288 276 261 252 249 248 245 242 237 231 232 251 252 247 246 245 239 235 238 241 237 226 216 213 214 215 216 216 215 213 210 211 213 211 209 208 209 211 214 215 217 217 217 216 216 217 218 221 224 227 230 231 231 233 234 237 245 251 252 257 264 270 275 280 284
290 290 290 291 291 291 291 288 287 289 287 274 256 247 245 246 244 240 235 232 241 252 250 243 239 233 225 224 225 226 219 208 204 207 208 209 210 209 208 208 209 211 211 208 208 210 213 215 217 217 217 218 217 217 218 220 222 226 228 229 229 229 231 233 236 242 247 249 254 260 266 270 273 278
290 290 290 290 291 292 293 291 288 286 287 287 275 258 247 244 244 240 236 233 234 246 252 243 235 230 225 223 223 221 215 207 202 204 204 203 204 205 206 208 209 209 209 208 208 211 215 217 217 216 216 219 218 217 220 222 225 228 228 227 227 227 229 232 235 239 243 247 250 256 262 265 267 271
288 288 289 289 290 292 292 292 291 288 286 286 286 277 262 250 245 241 236 235 236 243 251 245 235 229 223 221 220 216 209 206 206 205 203 201 201 203 206 209 210 208 207 209 211 213 215 215 214 214 217 219 219 219 220 224 228 230 228 227 226 225 228 231 234 238 241 244 248 253 258 260 260 264
286 286 286 287 288 290 290 289 290 290 289 286 285 286 281 268 256 247 239 235 235 238 244 245 238 229 223 217 212 208 204 202 202 203 203 200 200 202 204 207 209 207 206 209 212 214 216 214 212 214 218 219 219 221 222 225 230 231 228 227 225 225 228 231 232 236 240 244 246 251 255 256 257 259
285 284 284 285 286 285 285 284 285 288 291 291 288 286 285 283 274 260 248 239 232 231 237 245 243 232 225 214 202 203 205 201 195 193 197 200 200 202 202 204 206 206 205 208 211 212 213 213 213 215 218 220 221 222 223 227 232 231 228 226 224 225 228 230 233 235 239 243 244 249 253 253 254 257
283 283 282 282 282 282 282 282 283 285 289 291 292 290 288 289 286 276 264 251 239 231 233 240 243 238 229 215 199 197 200 199 194 189 184 191 200 202 201 202 204 203 203 206 209 211 211 212 214 216 218 221 223 223 225 230 232 230 228 225 224 225 228 231 233 235 239 242 243 246 250 250 251 255
284 282 281 280 279 278 279 278 279 280 284 288 289 290 291 292 293 292 281 264 251 241 233 232 238 239 229 213 197 188 185 184 187 189 188 190 196 199 200 203 203 202 203 204 205 206 208 210 213 215 218 221 222 224 227 231 231 229 226 225 224 225 229 231 233 236 238 240 244 246 248 249 249 253
283 282 282 282 282 281 280 279 279 278 278 281 283 285 287 289 291 294 293 282 268 257 245 236 236 237 227 207 186 175 180 186 190 191 192 193 195 195 196 201 204 203 202 203 204 204 205 208 211 213 216 218 220 223 227 229 228 226 224 223 225 227 230 232 234 237 238 239 244 247 248 249 250 253
282 281 280 280 280 281 282 283 284 283 280 278 278 279 282 283 282 283 285 284 280 271 261 249 239 231 222 206 189 183 191 196 193 189 190 191 188 185 188 199 205 204 202 202 203 204 206 208 209 211 214 216 218 220 224 225 224 222 221 221 224 227 230 232 234 236 238 240 243 246 248 249 250 255
285 283 281 280 279 278 278 279 279 282 284 283 281 280 280 280 278 276 274 274 274 272 268 265 253 235 220 208 198 194 196 196 192 191 193 190 181 178 184 194 202 206 204 201 202 204 206 206 207 210 213 215 218 220 222 223 221 219 220 222 224 227 229 233 235 236 237 239 243 247 247 249 253 259
286 285 283 281 279 277 276 276 275 276 278 280 282 283 282 280 277 275 272 268 267 265 263 264 263 255 241 221 207 201 199 196 195 195 195 191 185 186 192 195 200 206 204 199 200 204 205 205 207 211 214 216 219 221 221 221 219 219 221 225 225 227 230 232 232 233 235 239 243 246 247 250 256 261
285 284 283 281 279 277 277 276 275 274 275 275 278 280 282 281 278 276 273 269 266 264 260 257 258 258 255 241 220 211 205 199 194 193 194 195 194 195 200 202 205 205 198 194 197 203 206 206 206 211 215 217 220 221 221 221 220 219 221 224 225 228 229 227 226 228 235 241 243 244 247 252 256 263
284 282 281 279 278 277 276 275 274 274 274 274 274 275 278 280 281 280 278 273 269 265 260 254 253 253 252 252 244 229 214 204 197 196 197 200 201 201 205 208 208 203 196 194 195 202 207 206 206 211 215 217 219 221 221 221 220 220 221 223 226 230 228 223 223 230 239 244 244 244 247 251 259 270
283 281 279 277 275 275 273 271 271 272 272 272 271 271 272 274 278 279 278 277 273 269 264 258 255 254 251 249 251 245 226 211 206 206 205 204 202 200 201 203 204 203 199 196 195 202 209 205 205 210 213 214 219 221 222 222 221 220 220 222 225 228 226 222 225 235 246 248 245 242 245 252 262 276
284 282 279 276 274 273 271 269 269 268 269 270 268 268 267 269 272 273 273 274 274 274 273 268 264 261 257 250 246 245 238 222 213 212 210 202 196 192 191 190 193 198 200 199 198 203 209 205 205 209 211 212 216 220 223 223 222 220 220 222 224 225 223 224 228 239 250 249 241 238 243 253 262 279
285 282 279 276 274 272 270 269 267 265 265 265 264 264 264 264 266 269 271 273 274 275 276 277 274 270 265 257 247 242 241 229 213 203 197 194 191 190 190 191 195 199 201 200 199 203 209 204 203 206 208 212 216 221 225 225 222 219 219 219 220 222 225 227 232 243 250 244 237 237 242 250 253 266
286 284 281 276 273 271 270 268 266 263 262 260 259 259 261 260 260 264 269 273 275 278 280 279 280 277 267 259 249 242 238 229 213 202 199 197 193 193 198 199 194 199 205 201 197 201 210 203 197 195 196 208 217 222 226 227 221 214 213 215 217 220 225 228 234 245 247 238 233 237 238 236 235 249
287 285 283 279 274 272 270 268 265 262 258 257 256 255 256 256 256 259 266 270 271 277 284 284 286 286 274 259 248 240 233 226 217 211 208 203 196 197 201 195 179 183 214 205 196 197 204 195 187 185 179 188 214 218 220 222 216 208 205 208 213 217 220 225 233 241 239 232 231 232 228 224 229 246
287 285 283 282 278 276 273 268 265 261 256 254 254 253 251 252 254 258 263 266 267 270 278 285 289 294 286 265 246 234 227 222 218 215 213 206 202 202 200 194 191 198 213 204 194 194 199 191 185 187 186 180 190 200 205 210 209 205 203 206 210 215 217 222 229 229 225 224 223 222 220 221 230 248
286 284 282 282 280 278 275 269 264 260 256 253 251 249 249 251 255 260 260 262 267 269 272 279 284 290 290 270 242 227 221 218 215 213 211 208 208 208 202 197 199 205 214 205 195 193 193 188 183 185 189 190 174 171 185 199 202 198 200 205 209 212 216 219 218 212 211 216 217 218 222 225 233 250
283 281 280 280 279 278 276 270 264 259 255 252 249 248 250 252 254 256 257 258 263 266 268 273 277 282 286 267 235 219 216 215 211 209 209 208 209 211 209 206 205 208 213 206 194 191 190 186 183 181 183 183 167 160 167 182 194 196 198 203 207 213 217 213 205 203 208 214 216 222 231 235 240 253
281 280 279 280 279 278 275 270 265 261 255 251 249 249 251 253 252 253 254 254 256 259 263 267 268 272 276 260 231 215 212 211 207 205 206 206 207 208 209 210 211 212 214 204 192 191 194 191 186 184 181 172 156 155 162 168 185 196 198 198 203 210 211 206 203 206 208 209 215 224 231 234 239 251
281 280 279 280 279 277 274 269 265 261 256 253 251 250 251 252 252 250 249 249 251 252 256 259 259 262 266 255 232 219 215 209 202 200 201 203 204 204 204 207 209 212 213 203 192 193 198 197 189 186 186 177 163 158 164 166 179 191 191 191 196 200 200 203 208 209 208 212 214 211 211 215 221 246
282 281 281 281 279 277 273 268 264 260 256 253 251 250 250 250 249 247 245 245 245 245 247 251 251 254 258 252 235 223 213 201 194 192 192 194 196 197 199 201 204 206 204 195 190 191 198 201 192 186 185 180 169 164 165 166 177 185 184 182 187 193 196 203 207 209 208 202 189 180 184 204 228 261
286 285 283 282 280 278 274 267 260 255 251 250 249 249 249 248 244 242 240 240 239 238 241 244 245 248 252 244 227 212 200 190 186 185 184 184 185 187 187 181 175 178 181 184 188 192 196 200 193 183 177 175 173 172 170 169 175 180 179 176 177 188 200 205 205 204 194 177 164 162 164 168 233 275
288 287 285 284 282 278 274 267 259 252 248 246 245 245 246 245 242 239 238 238 237 237 237 238 240 241 238 225 208 194 184 181 181 182 181 177 173 176 176 164 150 151 162 172 183 190 194 194 190 182 175 171 173 178 178 176 172 169 171 177 183 192 201 199 191 183 178 172 163 154 144 128 95 71
291 288 287 285 281 274 268 262 255 249 244 241 240 239 240 240 237 236 237 237 236 235 233 230 227 222 212 202 192 181 175 173 174 177 178 173 168 167 165 155 145 146 152 158 166 175 182 183 180 179 177 173 172 176 177 175 171 167 170 182 187 184 182 177 169 163 166 167 153 135 122 101 91 94
291 288 285 281 274 263 255 250 246 242 238 235 234 233 233 233 232 231 232 230 229 229 225 216 206 198 192 186 178 171 166 166 169 172 173 168 164 163 160 154 151 151 149 147 151 156 163 168 170 173 176 177 179 180 174 166 164 166 169 173 171 161 158 162 160 156 158 155 141 130 116 98 95 98
289 284 279 274 266 254 246 241 238 234 229 226 225 225 226 229 233 234 233 230 227 222 213 202 194 188 181 175 170 165 160 159 162 167 169 165 162 159 154 149 149 151 146 142 145 149 151 154 154 151 150 153 156 164 166 160 154 153 155 157 153 144 143 151 152 143 141 141 138 132 119 104 97 91
288 281 275 271 265 252 241 236 232 227 221 219 221 223 224 228 232 233 234 232 222 209 198 191 186 182 177 172 169 164 158 154 155 159 161 161 160 159 155 150 149 151 147 143 145 148 147 146 143 137 132 130 126 131 146 151 149 145 141 141 143 140 137 140 141 134 132 136 140 139 123 104 90 74
294 292 284 273 265 251 236 230 226 221 219 220 223 225 227 232 234 234 230 221 206 193 186 181 178 176 173 170 166 161 156 153 152 153 155 156 156 154 151 149 148 149 147 144 145 147 146 146 145 138 130 124 117 102 106 131 146 150 143 136 137 140 138 135 134 131 131 135 141 138 119 97 77 60
312 316 311 285 263 247 235 231 228 225 225 227 229 230 232 233 233 227 215 201 190 183 180 177 174 172 169 165 160 156 154 152 150 150 150 150 150 147 144 144 145 144 143 143 145 147 147 148 149 145 137 126 121 109 94 111 132 148 150 143 139 138 139 138 133 127 125 127 127 122 111 95 80 66
329 330 333 325 292 252 238 235 232 230 232 233 233 233 230 222 211 197 186 179 175 173 173 171 169 167 164 160 155 151 149 148 147 147 147 146 146 144 142 142 143 142 141 143 147 150 151 154 157 157 150 135 123 134 126 111 112 126 144 150 147 144 145 143 134 126 124 124 118 108 99 94 86 73
344 341 343 343 341 315 227 220 219 219 221 222 219 213 204 191 177 169 168 168 167 167 166 165 164 161 159 158 155 150 149 147 145 145 146 145 143 142 140 140 141 142 142 144 148 153 157 162 166 165 160 155 153 150 141 125 113 115 123 132 145 151 152 147 137 128 125 124 117 104 98 99 92 79
352 353 355 355 354 1 85 170 183 184 177 174 176 173 169 165 162 161 162 162 162 163 163 161 159 157 156 155 153 150 148 147 145 144 143 141 140 140 139 139 141 142 141 140 144 152 159 164 168 170 170 166 158 146 133 120 110 112 114 112 123 146 156 155 146 134 127 123 113 102 101 101 90 74
357 359 4 8 11 20 62 121 146 153 149 146 147 147 146 150 153 156 158 159 158 158 158 156 156 155 155 155 153 148 144 142 142 141 140 138 137 139 140 139 138 136 132 127 128 136 146 156 162 167 166 157 147 136 125 114 109 109 108 108 114 123 131 136 134 126 118 111 105 102 103 100 82 63
3 6 12 19 27 38 62 98 120 131 135 136 138 138 137 138 143 146 148 149 150 151 150 151 151 151 150 150 149 146 142 140 139 138 137 135 134 134 134 131 128 127 124 119 120 125 135 150 160 160 154 148 143 135 124 122 126 122 116 116 118 118 120 121 118 113 105 97 94 94 94 93 80 53
10 13 19 27 37 47 60 81 102 116 124 128 132 134 133 130 130 134 135 136 137 139 141 142 144 144 144 144 144 142 140 139 137 135 135 134 133 131 130 130 130 129 126 123 123 127 134 141 146 147 144 143 143 137 130 130 134 133 132 132 127 123 124 121 112 109 106 98 91 86 80 74 69 49
16 21 27 34 42 50 59 71 85 100 112 118 122 125 126 124 122 124 127 130 132 134 136 137 138 139 139 139 137 135 134 135 135 133 131 131 132 131 131 131 131 130 128 125 125 128 132 135 139 141 140 140 139 136 134 135 137 136 135 135 132 129 129 121 111 112 111 104 96 89 76 65 59 54
25 31 37 42 47 53 60 68 78 88 98 106 111 113 115 116 116 118 120 124 128 131 134 135 135 136 137 136 133 131 130 130 131 130 128 129 132 133 132 132 131 131 132 131 129 128 130 131 134 137 137 135 135 135 135 135 135 131 129 128 127 123 117 111 114 119 114 104 96 88 74 65 64 64